DMSP 5D-2 F13 DEB, 40413

Orbit data source: Space-Track

DMSP 5D-2 F13 DEB, 40413 is space debris in SSO originally from a launch on Fri, 24 Mar 1995 UTC launched from the Air Force Western Test Range (AFWTR). Debris objects in space refer to the collection of defunct objects orbiting the Earth. Examples of debris include non-operational satellites, rocket bodies, and fragments generated from explosions, collisions, or faulty payload assembly.

Loading next visibility...
Identifier
40413, 1995-015AA
Orbit
SSO
Country
Flag of USUS
Related business
Manufacturer
Unknown
Mission
Spacecraft
Bus & Motor
Unknown
Mass
Unknown
Launch date (UTC)
1995-03-24 (31 years ago)
Launch vehicle
Unknown
Launch site
Air Force Western Test Range (AFWTR)
Object type
Payload
Rocket body
Debris
Shape & HBR
Unknown shape, 0.1 m
Radar Cross Section
Small (<0.1 m²)

Expand to show TLE details & history
Last TLE update: 1 day ago

TLE from 1 day ago
0 DMSP 5D-2 F13 DEB
1 40413U 95015AA  25315.05698345  .00003789  00000-0  14329-2 0  9996
2 40413  98.6376 340.0499 0012919 203.0094 157.0512 14.31777702556121
Epoch: 2025-11-11T01:22Z
TLE epoch observation values (Epoch: 2025-11-11T01:22:03.370Z)
Latitude
-0°
Longitude
-90.91315°
Altitude
797.254 km
Speed
7.45 km/s
True Right ascension
22h 40m 11s
True Declination
0° 00' 00"
Sunlit
Object was in daylight at epoch
Visualization orbit readout
Latitude
Unknown
Longitude
Unknown
Altitude
Unknown
Speed
Unknown
Apparent Right ascension
Unknown
Apparent Declination
Unknown
Sunlit
N/A
Visualization observer readout
Local Sidereal Time
01:13:46
Azimuth
Unknown
Elevation
Unknown
Doppler factor
Unknown
Orbital elements
Apogee altitude
792.186 km
Perigee altitude
773.683 km
Semi-major axis
7,161.071 km
Eccentricity
0.00129
Inclination
98.6376°
RAAN
340.0499°
Arg. of periapsis
203.0094°
True anomaly
157.10884°
Mean anomaly
157.0512°
Eccentric anomaly
157.08003°
Mean motion
3.58159 °/min
Orbital period
100.51 mins
BSTAR
0.0014329
Loading maneuver chart data...
Computing Atmospheric mass density...

Documentation

Showing up to 5 results
|